Startpagina
METAR-TAF:

METAR-TAF

Vliegvelden :

K13-a, Nederland

Productieplatform

breedte: 53-13-04N, lengte: 3-13-13E, hoogte: 31 m

Actueel weer

Dit bericht is 36 minuten geleden gemaakt, om 09:55 UTC
Wind 22 kt uit het zuiden met uitschieters tot 25 kt
Temperatuur 17°C
Vochtigheid 72%
Druk 1016 hPa

METAR: EHJR 210955Z AUTO 19022G25KT //// ///////// 17/12 Q1016 W17/H14

Tijdstip: 12:31 (10:31 UTC)


TAF: ontbreekt

Waarnemingen en weersverwachtingen van meer dan 4000 vliegvelden (METAR en TAF).

De beschikbare stations zijn de gele en rode punten op de kaart.

Ga met uw muis naar het station om de naam te zien.

Klik dan om waarnemingen en weersverwachtingen te zien.

kaart wijzigen: klik op de groene knoppen met een zwart kruis om in te zoomen, op de groene knop met een streepje om uit te zoomen of op de groene pijlen voor aangrenzende kaarten.


METAR-TAF: